Location: Montreal
(45.5000°N, 73.5833°W)
Time: 12:50:25
(UTC-04:00)

OTV 5 (USA 277) - Pass Details

Date: 09 October 2017
Orbit: 404 x 417 km, 43.0° (Epoch: 07 September)

Event Time Altitude Azimuth Distance (km) Brightness Sun altitude
Rises 20:34:35 0° 236° (SW) 2,348 ? -24.4°
Reaches altitude 10° 20:36:49 10° 226° (SW) 1,486 ? -24.7°
Enters shadow 20:37:20 13° 221° (SW) 1,299 ? -24.8°
